Location: Plainartige
(45.6866°N, 1.7993°E)
Time: 14:22:14
(UTC+00:00)

Cosmos 1933 Rocket - Pass Details

Date: 03 March 2021
Orbit: 607 x 629 km, 82.5° (Epoch: 11 April)

Event Time Altitude Azimuth Distance (km) Brightness Sun altitude
Rises 18:55:43 0° 181° (S) 2,858 6.9 -13.6°
Reaches altitude 10° 18:57:55 10° 179° (S) 1,961 6.1 -14.0°
Maximum altitude 19:02:14 71° 96° (E) 653 3.4 -14.7°
Drops below altitude 10° 19:06:37 10° 13° (NNE) 1,990 6.1 -15.5°
Sets 19:08:52 0° 11° (NNE) 2,904 7.0 -15.9°
